Details for Virgin Australia at NZAA




Go Back


Latest METAR
Local Time

NZAA 181300Z AUTO 15004KT 9999 FEW034/// OVC100/// 15/14 Q1014 NOSIG
19/09/2018, 01:16:43

Description
Results
Virgin Australia Logo
Number of Pilots based at NZAA
0 Pilots Based here
Number of Virgin Australia Flights Departed from NZAA
0 Flights Departed
Number of Virgin Australia Flights Arrived at NZAA
0 Flights Arrived
Number of Virgin Australia Schedules Departing from NZAA
11 Schedules
Number of Virgin Australia Schedules Arriving at NZAA
13 Schedules
Number of Virgin Australia Schedules Departing from NZAA availible today
7 Schedules Today
Number of Virgin Australia Schedules Arriving at NZAA availible today
9 Schedules Today
Average Landing Rate at NZAA
-129 fpm
Virgin Australia Average Landing Rate at NZAA
0 fpm
Total Fuel Purchased at NZAA by Virgin Australia
0.00 kgs / 0.00 lbs

Pilots Based at NZAA


Pilot ID
Pilot Name
Pilot Rank
No. of Flights
No. of Flying Hours
There are no pilots assigned to this hub!   Will you be the first?
Content